Location: LDNL
(36.4545°S, 141.6685°E)
Time: 21:19:41
(UTC+11:00)

Courier 1B Rocket - Pass Details

Date: 31 January 2023
Orbit: 920 x 1202 km, 28.2° (Epoch: 26 March)

Event Time Altitude Azimuth Distance (km) Brightness Sun altitude
Rises 09:16:28 0° 285° (WNW) 4,098 7.7 28.2°
Reaches altitude 10° 09:19:28 10° 290° (WNW) 3,121 7.2 28.8°
Maximum altitude 09:26:48 46° 360° (N) 1,518 6.4 30.2°
Drops below altitude 10° 09:33:47 10° 70° (ENE) 2,972 8.8 31.6°
Sets 09:36:35 0° 76° (ENE) 3,887 9.2 32.2°
